Location: Unspecified
(0.0000°N, 0.0000°E)
Time: 22:24:19
(UTC+00:00)

Hubble Space Telescope - Pass Details

Date: 03 December 2025
Orbit: 480 x 483 km, 28.5° (Epoch: 08 December)

Event Time Altitude Azimuth Distance (km) Brightness Sun altitude
Exits shadow 05:16:34 - 309° (NW) 1,734 2.7 -7.7°
Reaches altitude 10° 05:16:49 10° 310° (NW) 1,637 2.6 -7.6°
Maximum altitude 05:20:32 60° 30° (NNE) 547 0.9 -6.8°
Drops below altitude 10° 05:24:16 10° 111° (ESE) 1,643 5.2 -5.9°
Sets 05:26:29 0° 114° (ESE) 2,523 7.2 -5.4°
